owner,sensor,date,latitude,longitude,vertical_datum,wind_speed,wind_to_direction,wind_speed_of_gust,qcFlag 
LUMCON,ioos:station:LUMCON:103:1,2004-04-01T00:00:00Z,30.1889,-90.1683,1.0,5.7,340.0,99.0,'11111222,11111222,11144222' 
LUMCON,ioos:station:LUMCON:103:1,2004-04-01T01:00:00Z,30.1889,-90.1683,1.0,4.1,350.0,99.0,'11111222,11111222,11144222' 
LUMCON,ioos:station:LUMCON:103:1,2004-04-01T02:00:00Z,30.1889,-90.1683,1.0,6.2,0.0,99.0,'11111222,11111222,11144222' 
LUMCON,ioos:station:LUMCON:103:1,2004-04-01T03:00:00Z,30.1889,-90.1683,1.0,6.2,10.0,99.0,'11111222,11111222,11144222' 
LUMCON,ioos:station:LUMCON:103:1,2004-04-01T04:00:00Z,30.1889,-90.1683,1.0,6.2,10.0,99.0,'11111222,11111222,11144222' 
LUMCON,ioos:station:LUMCON:103:1,2004-04-01T05:00:00Z,30.1889,-90.1683,1.0,5.1,0.0,99.0,'11111222,11111222,11144222' 
LUMCON,ioos:station:LUMCON:103:1,2004-04-01T06:00:00Z,30.1889,-90.1683,1.0,6.7,30.0,99.0,'11111222,11111222,11144222' 
LUMCON,ioos:station:LUMCON:103:1,2004-04-01T07:00:00Z,30.1889,-90.1683,1.0,6.7,30.0,99.0,'11111222,11111222,11144222' 
LUMCON,ioos:station:LUMCON:103:1,2004-04-01T08:00:00Z,30.1889,-90.1683,1.0,6.2,30.0,99.0,'11111222,11111222,11144222' 
LUMCON,ioos:station:LUMCON:103:1,2004-04-01T09:00:00Z,30.1889,-90.1683,1.0,6.2,50.0,99.0,'11111222,11111222,11144222' 
LUMCON,ioos:station:LUMCON:103:1,2004-04-01T10:00:00Z,30.1889,-90.1683,1.0,3.6,30.0,99.0,'11111222,11111222,11144222' 
LUMCON,ioos:station:LUMCON:103:1,2004-04-01T11:00:00Z,30.1889,-90.1683,1.0,3.6,10.0,99.0,'11111222,11111222,11144222' 
LUMCON,ioos:station:LUMCON:103:1,2004-04-01T12:00:00Z,30.1889,-90.1683,1.0,4.1,20.0,99.0,'11111222,11111222,11144222' 
LUMCON,ioos:station:LUMCON:103:1,2004-04-01T13:00:00Z,30.1889,-90.1683,1.0,3.6,20.0,99.0,'11111222,11111222,11144222' 
LUMCON,ioos:station:LUMCON:103:1,2004-04-01T14:00:00Z,30.1889,-90.1683,1.0,4.6,40.0,99.0,'11111222,11111222,11144222' 
LUMCON,ioos:station:LUMCON:103:1,2004-04-01T15:00:00Z,30.1889,-90.1683,1.0,4.1,70.0,99.0,'11111222,11111222,11144222' 
LUMCON,ioos:station:LUMCON:103:1,2004-04-01T16:00:00Z,30.1889,-90.1683,1.0,2.6,90.0,99.0,'11111222,11111222,11144222' 
LUMCON,ioos:station:LUMCON:103:1,2004-04-01T17:00:00Z,30.1889,-90.1683,1.0,2.1,110.0,99.0,'11111222,11111222,11144222' 
LUMCON,ioos:station:LUMCON:103:1,2004-04-01T18:00:00Z,30.1889,-90.1683,1.0,2.6,150.0,99.0,'11111222,11111222,11144222' 
LUMCON,ioos:station:LUMCON:103:1,2004-04-01T19:00:00Z,30.1889,-90.1683,1.0,4.6,190.0,99.0,'11111222,11111222,11144222' 
LUMCON,ioos:station:LUMCON:103:1,2004-04-01T20:00:00Z,30.1889,-90.1683,1.0,5.7,190.0,99.0,'11111222,11111222,11144222' 
LUMCON,ioos:station:LUMCON:103:1,2004-04-01T21:00:00Z,30.1889,-90.1683,1.0,4.6,180.0,99.0,'11111222,11111222,11144222' 
LUMCON,ioos:station:LUMCON:103:1,2004-04-01T22:00:00Z,30.1889,-90.1683,1.0,4.1,180.0,99.0,'11111222,11111222,11144222' 
LUMCON,ioos:station:LUMCON:103:1,2004-04-01T23:00:00Z,30.1889,-90.1683,1.0,2.6,170.0,99.0,'11111222,11111222,11144222' 
LUMCON,ioos:station:LUMCON:103:1,2004-04-02T00:00:00Z,30.1889,-90.1683,1.0,3.6,200.0,99.0,'11111222,11111222,11144222' 
LUMCON,ioos:station:LUMCON:103:1,2004-04-02T01:00:00Z,30.1889,-90.1683,1.0,2.6,220.0,99.0,'11111222,11111222,11144222' 
LUMCON,ioos:station:LUMCON:103:1,2004-04-02T02:00:00Z,30.1889,-90.1683,1.0,4.6,190.0,99.0,'11111222,11111222,11144222' 
LUMCON,ioos:station:LUMCON:103:1,2004-04-02T03:00:00Z,30.1889,-90.1683,1.0,7.7,180.0,99.0,'11111222,11111222,11144222' 
LUMCON,ioos:station:LUMCON:103:1,2004-04-02T04:00:00Z,30.1889,-90.1683,1.0,7.7,200.0,99.0,'11111222,11111222,11144222' 
LUMCON,ioos:station:LUMCON:103:1,2004-04-02T05:00:00Z,30.1889,-90.1683,1.0,7.7,220.0,99.0,'11111222,11111222,11144222' 
LUMCON,ioos:station:LUMCON:103:1,2004-04-02T06:00:00Z,30.1889,-90.1683,1.0,3.6,250.0,99.0,'11111222,11111222,11144222' 
LUMCON,ioos:station:LUMCON:103:1,2004-04-02T07:00:00Z,30.1889,-90.1683,1.0,2.6,300.0,99.0,'11111222,11111222,11144222' 
LUMCON,ioos:station:LUMCON:103:1,2004-04-02T08:00:00Z,30.1889,-90.1683,1.0,3.6,360.0,99.0,'11111222,11144222,11144222' 
LUMCON,ioos:station:LUMCON:103:1,2004-04-02T09:00:00Z,30.1889,-90.1683,1.0,5.1,20.0,99.0,'11111222,11111222,11144222' 
LUMCON,ioos:station:LUMCON:103:1,2004-04-02T10:00:00Z,30.1889,-90.1683,1.0,8.8,50.0,99.0,'11111222,11111222,11144222' 
LUMCON,ioos:station:LUMCON:103:1,2004-04-02T11:00:00Z,30.1889,-90.1683,1.0,8.2,40.0,99.0,'11111222,11111222,11144222' 
LUMCON,ioos:station:LUMCON:103:1,2004-04-02T12:00:00Z,30.1889,-90.1683,1.0,6.7,40.0,99.0,'11111222,11111222,11144222' 
LUMCON,ioos:station:LUMCON:103:1,2004-04-02T13:00:00Z,30.1889,-90.1683,1.0,7.2,40.0,99.0,'11111222,11111222,11144222' 
LUMCON,ioos:station:LUMCON:103:1,2004-04-02T14:00:00Z,30.1889,-90.1683,1.0,5.7,40.0,99.0,'11111222,11111222,11144222' 
LUMCON,ioos:station:LUMCON:103:1,2004-04-02T15:00:00Z,30.1889,-90.1683,1.0,5.7,30.0,99.0,'11111222,11111222,11144222' 
LUMCON,ioos:station:LUMCON:103:1,2004-04-02T16:00:00Z,30.1889,-90.1683,1.0,4.1,40.0,99.0,'11111222,11111222,11144222' 
LUMCON,ioos:station:LUMCON:103:1,2004-04-02T17:00:00Z,30.1889,-90.1683,1.0,3.6,60.0,99.0,'11111222,11111222,11144222' 
LUMCON,ioos:station:LUMCON:103:1,2004-04-02T18:00:00Z,30.1889,-90.1683,1.0,3.1,80.0,99.0,'11111222,11111222,11144222' 
LUMCON,ioos:station:LUMCON:103:1,2004-04-02T19:00:00Z,30.1889,-90.1683,1.0,2.6,130.0,99.0,'11111222,11111222,11144222' 
LUMCON,ioos:station:LUMCON:103:1,2004-04-02T20:00:00Z,30.1889,-90.1683,1.0,4.6,180.0,99.0,'11111222,11111222,11144222' 
LUMCON,ioos:station:LUMCON:103:1,2004-04-02T22:00:00Z,30.1889,-90.1683,1.0,4.6,190.0,99.0,'11111222,11111222,11144222' 
LUMCON,ioos:station:LUMCON:103:1,2004-04-02T23:00:00Z,30.1889,-90.1683,1.0,4.1,180.0,99.0,'11111222,11111222,11144222' 
LUMCON,ioos:station:LUMCON:103:1,2004-04-03T00:00:00Z,30.1889,-90.1683,1.0,3.1,200.0,99.0,'11111222,11111222,11144222' 
LUMCON,ioos:station:LUMCON:103:1,2004-04-03T01:00:00Z,30.1889,-90.1683,1.0,2.1,190.0,99.0,'11111222,11111222,11144222' 
LUMCON,ioos:station:LUMCON:103:1,2004-04-03T02:00:00Z,30.1889,-90.1683,1.0,1.5,230.0,99.0,'11111222,11111222,11144222' 
LUMCON,ioos:station:LUMCON:103:1,2004-04-03T03:00:00Z,30.1889,-90.1683,1.0,2.1,250.0,99.0,'11111222,11111222,11144222' 
LUMCON,ioos:station:LUMCON:103:1,2004-04-03T04:00:00Z,30.1889,-90.1683,1.0,2.6,280.0,99.0,'11111222,11111222,11144222' 
LUMCON,ioos:station:LUMCON:103:1,2004-04-03T05:00:00Z,30.1889,-90.1683,1.0,2.6,310.0,99.0,'11111222,11111222,11144222' 
LUMCON,ioos:station:LUMCON:103:1,2004-04-03T06:00:00Z,30.1889,-90.1683,1.0,3.1,350.0,99.0,'11111222,11111222,11144222' 
LUMCON,ioos:station:LUMCON:103:1,2004-04-03T07:00:00Z,30.1889,-90.1683,1.0,5.1,30.0,99.0,'11111222,11111222,11144222' 
LUMCON,ioos:station:LUMCON:103:1,2004-04-03T08:00:00Z,30.1889,-90.1683,1.0,6.2,40.0,99.0,'11111222,11111222,11144222' 
LUMCON,ioos:station:LUMCON:103:1,2004-04-03T09:00:00Z,30.1889,-90.1683,1.0,6.2,40.0,99.0,'11111222,11111222,11144222' 
LUMCON,ioos:station:LUMCON:103:1,2004-04-03T10:00:00Z,30.1889,-90.1683,1.0,4.6,50.0,99.0,'11111222,11111222,11144222' 
LUMCON,ioos:station:LUMCON:103:1,2004-04-03T11:00:00Z,30.1889,-90.1683,1.0,4.1,50.0,99.0,'11111222,11111222,11144222' 
LUMCON,ioos:station:LUMCON:103:1,2004-04-03T12:00:00Z,30.1889,-90.1683,1.0,3.6,20.0,99.0,'11111222,11111222,11144222' 
LUMCON,ioos:station:LUMCON:103:1,2004-04-03T13:00:00Z,30.1889,-90.1683,1.0,2.6,10.0,99.0,'11111222,11111222,11144222' 
LUMCON,ioos:station:LUMCON:103:1,2004-04-03T14:00:00Z,30.1889,-90.1683,1.0,3.6,40.0,99.0,'11111222,11111222,11144222' 
LUMCON,ioos:station:LUMCON:103:1,2004-04-03T15:00:00Z,30.1889,-90.1683,1.0,3.1,60.0,99.0,'11111222,11111222,11144222' 
LUMCON,ioos:station:LUMCON:103:1,2004-04-03T16:00:00Z,30.1889,-90.1683,1.0,3.1,50.0,99.0,'11111222,11111222,11144222' 
LUMCON,ioos:station:LUMCON:103:1,2004-04-03T17:00:00Z,30.1889,-90.1683,1.0,3.6,140.0,99.0,'11111222,11111222,11144222' 
LUMCON,ioos:station:LUMCON:103:1,2004-04-03T18:00:00Z,30.1889,-90.1683,1.0,3.1,160.0,99.0,'11111222,11111222,11144222' 
LUMCON,ioos:station:LUMCON:103:1,2004-04-03T19:00:00Z,30.1889,-90.1683,1.0,5.1,180.0,99.0,'11111222,11111222,11144222' 
LUMCON,ioos:station:LUMCON:103:1,2004-04-03T20:00:00Z,30.1889,-90.1683,1.0,5.7,180.0,99.0,'11111222,11111222,11144222' 
LUMCON,ioos:station:LUMCON:103:1,2004-04-03T21:00:00Z,30.1889,-90.1683,1.0,4.6,170.0,99.0,'11111222,11111222,11144222' 
LUMCON,ioos:station:LUMCON:103:1,2004-04-03T22:00:00Z,30.1889,-90.1683,1.0,5.7,190.0,99.0,'11111222,11111222,11144222' 
LUMCON,ioos:station:LUMCON:103:1,2004-04-03T23:00:00Z,30.1889,-90.1683,1.0,3.6,240.0,99.0,'11111222,11111222,11144222' 
LUMCON,ioos:station:LUMCON:103:1,2004-04-04T00:00:00Z,30.1889,-90.1683,1.0,3.1,230.0,99.0,'11111222,11111222,11144222' 
LUMCON,ioos:station:LUMCON:103:1,2004-04-04T01:00:00Z,30.1889,-90.1683,1.0,3.1,270.0,99.0,'11111222,11111222,11144222' 
LUMCON,ioos:station:LUMCON:103:1,2004-04-04T02:00:00Z,30.1889,-90.1683,1.0,3.1,330.0,99.0,'11111222,11111222,11144222' 
LUMCON,ioos:station:LUMCON:103:1,2004-04-04T03:00:00Z,30.1889,-90.1683,1.0,3.6,0.0,99.0,'11111222,11111222,11144222' 
LUMCON,ioos:station:LUMCON:103:1,2004-04-04T04:00:00Z,30.1889,-90.1683,1.0,4.1,250.0,99.0,'11111222,11111222,11144222' 
LUMCON,ioos:station:LUMCON:103:1,2004-04-04T05:00:00Z,30.1889,-90.1683,1.0,3.1,300.0,99.0,'11111222,11111222,11144222' 
LUMCON,ioos:station:LUMCON:103:1,2004-04-04T06:00:00Z,30.1889,-90.1683,1.0,2.1,300.0,99.0,'11111222,11111222,11144222' 
LUMCON,ioos:station:LUMCON:103:1,2004-04-04T07:00:00Z,30.1889,-90.1683,1.0,2.6,320.0,99.0,'11111222,11111222,11144222' 
LUMCON,ioos:station:LUMCON:103:1,2004-04-04T08:00:00Z,30.1889,-90.1683,1.0,3.1,330.0,99.0,'11111222,11111222,11144222' 
LUMCON,ioos:station:LUMCON:103:1,2004-04-04T09:00:00Z,30.1889,-90.1683,1.0,3.6,0.0,99.0,'11111222,11111222,11144222' 
LUMCON,ioos:station:LUMCON:103:1,2004-04-04T10:00:00Z,30.1889,-90.1683,1.0,3.1,360.0,99.0,'11111222,11144222,11144222' 
LUMCON,ioos:station:LUMCON:103:1,2004-04-04T11:00:00Z,30.1889,-90.1683,1.0,3.1,0.0,99.0,'11111222,11111222,11144222' 
LUMCON,ioos:station:LUMCON:103:1,2004-04-04T12:00:00Z,30.1889,-90.1683,1.0,1.5,320.0,99.0,'11111222,11111222,11144222' 
LUMCON,ioos:station:LUMCON:103:1,2004-04-04T13:00:00Z,30.1889,-90.1683,1.0,1.5,330.0,99.0,'11111222,11111222,11144222' 
LUMCON,ioos:station:LUMCON:103:1,2004-04-04T14:00:00Z,30.1889,-90.1683,1.0,1.0,350.0,99.0,'11111222,11111222,11144222' 
LUMCON,ioos:station:LUMCON:103:1,2004-04-04T15:00:00Z,30.1889,-90.1683,1.0,1.0,110.0,99.0,'11111222,11111222,11144222' 
LUMCON,ioos:station:LUMCON:103:1,2004-04-04T16:00:00Z,30.1889,-90.1683,1.0,2.6,70.0,99.0,'11111222,11111222,11144222' 
LUMCON,ioos:station:LUMCON:103:1,2004-04-04T17:00:00Z,30.1889,-90.1683,1.0,3.6,10.0,99.0,'11111222,11111222,11144222' 
LUMCON,ioos:station:LUMCON:103:1,2004-04-04T18:00:00Z,30.1889,-90.1683,1.0,3.6,350.0,99.0,'11111222,11111222,11144222' 
LUMCON,ioos:station:LUMCON:103:1,2004-04-04T19:00:00Z,30.1889,-90.1683,1.0,2.1,160.0,99.0,'11111222,11111222,11144222' 
LUMCON,ioos:station:LUMCON:103:1,2004-04-04T20:00:00Z,30.1889,-90.1683,1.0,5.7,180.0,99.0,'11111222,11111222,11144222' 
LUMCON,ioos:station:LUMCON:103:1,2004-04-04T21:00:00Z,30.1889,-90.1683,1.0,4.6,170.0,99.0,'11111222,11111222,11144222' 
LUMCON,ioos:station:LUMCON:103:1,2004-04-04T22:00:00Z,30.1889,-90.1683,1.0,5.1,190.0,99.0,'11111222,11111222,11144222' 
LUMCON,ioos:station:LUMCON:103:1,2004-04-04T23:00:00Z,30.1889,-90.1683,1.0,4.6,180.0,99.0,'11111222,11111222,11144222' 
LUMCON,ioos:station:LUMCON:103:1,2004-04-05T00:00:00Z,30.1889,-90.1683,1.0,2.6,170.0,99.0,'11111222,11111222,11144222' 
LUMCON,ioos:station:LUMCON:103:1,2004-04-05T01:00:00Z,30.1889,-90.1683,1.0,1.0,350.0,99.0,'11111222,11111222,11144222' 
LUMCON,ioos:station:LUMCON:103:1,2004-04-05T02:00:00Z,30.1889,-90.1683,1.0,2.1,330.0,99.0,'11111222,11111222,11144222' 
LUMCON,ioos:station:LUMCON:103:1,2004-04-05T03:00:00Z,30.1889,-90.1683,1.0,5.7,10.0,99.0,'11111222,11111222,11144222' 
LUMCON,ioos:station:LUMCON:103:1,2004-04-05T04:00:00Z,30.1889,-90.1683,1.0,4.6,0.0,99.0,'11111222,11111222,11144222' 
LUMCON,ioos:station:LUMCON:103:1,2004-04-05T05:00:00Z,30.1889,-90.1683,1.0,4.6,360.0,99.0,'11111222,11144222,11144222' 
LUMCON,ioos:station:LUMCON:103:1,2004-04-05T06:00:00Z,30.1889,-90.1683,1.0,5.7,0.0,99.0,'11111222,11111222,11144222' 
LUMCON,ioos:station:LUMCON:103:1,2004-04-05T07:00:00Z,30.1889,-90.1683,1.0,5.7,10.0,99.0,'11111222,11111222,11144222' 
LUMCON,ioos:station:LUMCON:103:1,2004-04-05T08:00:00Z,30.1889,-90.1683,1.0,5.1,20.0,99.0,'11111222,11111222,11144222' 
LUMCON,ioos:station:LUMCON:103:1,2004-04-05T09:00:00Z,30.1889,-90.1683,1.0,4.6,30.0,99.0,'11111222,11111222,11144222' 
LUMCON,ioos:station:LUMCON:103:1,2004-04-05T10:00:00Z,30.1889,-90.1683,1.0,5.1,50.0,99.0,'11111222,11111222,11144222' 
LUMCON,ioos:station:LUMCON:103:1,2004-04-05T11:00:00Z,30.1889,-90.1683,1.0,7.7,50.0,99.0,'11111222,11111222,11144222' 
LUMCON,ioos:station:LUMCON:103:1,2004-04-05T12:00:00Z,30.1889,-90.1683,1.0,7.7,50.0,99.0,'11111222,11111222,11144222' 
LUMCON,ioos:station:LUMCON:103:1,2004-04-05T13:00:00Z,30.1889,-90.1683,1.0,8.8,50.0,99.0,'11111222,11111222,11144222' 
LUMCON,ioos:station:LUMCON:103:1,2004-04-05T14:00:00Z,30.1889,-90.1683,1.0,7.7,50.0,99.0,'11111222,11111222,11144222' 
LUMCON,ioos:station:LUMCON:103:1,2004-04-05T15:00:00Z,30.1889,-90.1683,1.0,6.7,70.0,99.0,'11111222,11111222,11144222' 
LUMCON,ioos:station:LUMCON:103:1,2004-04-05T17:00:00Z,30.1889,-90.1683,1.0,3.1,80.0,99.0,'11111222,11111222,11144222' 
LUMCON,ioos:station:LUMCON:103:1,2004-04-05T19:00:00Z,30.1889,-90.1683,1.0,3.1,160.0,99.0,'11111222,11111222,11144222' 
LUMCON,ioos:station:LUMCON:103:1,2004-04-06T00:00:00Z,30.1889,-90.1683,1.0,2.1,110.0,99.0,'11111222,11111222,11144222' 
LUMCON,ioos:station:LUMCON:103:1,2004-04-06T02:00:00Z,30.1889,-90.1683,1.0,4.6,140.0,99.0,'11111222,11111222,11144222' 
LUMCON,ioos:station:LUMCON:103:1,2004-04-06T04:00:00Z,30.1889,-90.1683,1.0,4.6,160.0,99.0,'11111222,11111222,11144222' 
LUMCON,ioos:station:LUMCON:103:1,2004-04-06T06:00:00Z,30.1889,-90.1683,1.0,3.1,140.0,99.0,'11111222,11111222,11144222' 
LUMCON,ioos:station:LUMCON:103:1,2004-04-06T07:00:00Z,30.1889,-90.1683,1.0,1.0,120.0,99.0,'11111222,11111222,11144222' 
LUMCON,ioos:station:LUMCON:103:1,2004-04-06T08:00:00Z,30.1889,-90.1683,1.0,1.5,350.0,99.0,'11111222,11111222,11144222' 
LUMCON,ioos:station:LUMCON:103:1,2004-04-06T09:00:00Z,30.1889,-90.1683,1.0,1.5,10.0,99.0,'11111222,11111222,11144222' 
LUMCON,ioos:station:LUMCON:103:1,2004-04-06T10:00:00Z,30.1889,-90.1683,1.0,2.1,30.0,99.0,'11111222,11111222,11144222' 
LUMCON,ioos:station:LUMCON:103:1,2004-04-06T11:00:00Z,30.1889,-90.1683,1.0,2.1,20.0,99.0,'11111222,11111222,11144222' 
LUMCON,ioos:station:LUMCON:103:1,2004-04-06T12:00:00Z,30.1889,-90.1683,1.0,3.1,70.0,99.0,'11111222,11111222,11144222' 
LUMCON,ioos:station:LUMCON:103:1,2004-04-06T13:00:00Z,30.1889,-90.1683,1.0,5.1,40.0,99.0,'11111222,11111222,11144222' 
LUMCON,ioos:station:LUMCON:103:1,2004-04-06T14:00:00Z,30.1889,-90.1683,1.0,5.7,40.0,99.0,'11111222,11111222,11144222' 
LUMCON,ioos:station:LUMCON:103:1,2004-04-06T17:00:00Z,30.1889,-90.1683,1.0,4.6,100.0,99.0,'11111222,11111222,11144222' 
LUMCON,ioos:station:LUMCON:103:1,2004-04-06T19:00:00Z,30.1889,-90.1683,1.0,6.7,100.0,99.0,'11111222,11111222,11144222' 
LUMCON,ioos:station:LUMCON:103:1,2004-04-06T20:00:00Z,30.1889,-90.1683,1.0,7.7,110.0,99.0,'11111222,11111222,11144222' 
LUMCON,ioos:station:LUMCON:103:1,2004-04-06T21:00:00Z,30.1889,-90.1683,1.0,7.7,110.0,99.0,'11111222,11111222,11144222' 
LUMCON,ioos:station:LUMCON:103:1,2004-04-06T22:00:00Z,30.1889,-90.1683,1.0,7.2,110.0,99.0,'11111222,11111222,11144222' 
LUMCON,ioos:station:LUMCON:103:1,2004-04-06T23:00:00Z,30.1889,-90.1683,1.0,7.2,110.0,99.0,'11111222,11111222,11144222' 
LUMCON,ioos:station:LUMCON:103:1,2004-04-07T00:00:00Z,30.1889,-90.1683,1.0,8.8,110.0,99.0,'11111222,11111222,11144222' 
LUMCON,ioos:station:LUMCON:103:1,2004-04-07T01:00:00Z,30.1889,-90.1683,1.0,8.2,120.0,99.0,'11111222,11111222,11144222' 
LUMCON,ioos:station:LUMCON:103:1,2004-04-07T02:00:00Z,30.1889,-90.1683,1.0,6.7,130.0,99.0,'11111222,11111222,11144222' 
LUMCON,ioos:station:LUMCON:103:1,2004-04-07T03:00:00Z,30.1889,-90.1683,1.0,5.1,140.0,99.0,'11111222,11111222,11144222' 
LUMCON,ioos:station:LUMCON:103:1,2004-04-07T04:00:00Z,30.1889,-90.1683,1.0,2.6,180.0,99.0,'11111222,11111222,11144222' 
LUMCON,ioos:station:LUMCON:103:1,2004-04-07T05:00:00Z,30.1889,-90.1683,1.0,4.6,230.0,99.0,'11111222,11111222,11144222' 
LUMCON,ioos:station:LUMCON:103:1,2004-04-07T06:00:00Z,30.1889,-90.1683,1.0,6.2,80.0,99.0,'11111222,11111222,11144222' 
LUMCON,ioos:station:LUMCON:103:1,2004-04-07T07:00:00Z,30.1889,-90.1683,1.0,4.1,70.0,99.0,'11111222,11111222,11144222' 
LUMCON,ioos:station:LUMCON:103:1,2004-04-07T08:00:00Z,30.1889,-90.1683,1.0,9.3,110.0,99.0,'11111222,11111222,11144222' 
LUMCON,ioos:station:LUMCON:103:1,2004-04-07T09:00:00Z,30.1889,-90.1683,1.0,6.7,120.0,99.0,'11111222,11111222,11144222' 
LUMCON,ioos:station:LUMCON:103:1,2004-04-07T10:00:00Z,30.1889,-90.1683,1.0,5.1,120.0,99.0,'11111222,11111222,11144222' 
LUMCON,ioos:station:LUMCON:103:1,2004-04-07T11:00:00Z,30.1889,-90.1683,1.0,5.1,120.0,99.0,'11111222,11111222,11144222' 
LUMCON,ioos:station:LUMCON:103:1,2004-04-07T12:00:00Z,30.1889,-90.1683,1.0,4.1,130.0,99.0,'11111222,11111222,11144222' 
LUMCON,ioos:station:LUMCON:103:1,2004-04-07T13:00:00Z,30.1889,-90.1683,1.0,3.6,130.0,99.0,'11111222,11111222,11144222' 
LUMCON,ioos:station:LUMCON:103:1,2004-04-07T14:00:00Z,30.1889,-90.1683,1.0,3.1,140.0,99.0,'11111222,11111222,11144222' 
LUMCON,ioos:station:LUMCON:103:1,2004-04-07T15:00:00Z,30.1889,-90.1683,1.0,2.6,160.0,99.0,'11111222,11111222,11144222' 
LUMCON,ioos:station:LUMCON:103:1,2004-04-07T16:00:00Z,30.1889,-90.1683,1.0,3.1,140.0,99.0,'11111222,11111222,11144222' 
LUMCON,ioos:station:LUMCON:103:1,2004-04-07T17:00:00Z,30.1889,-90.1683,1.0,3.1,140.0,99.0,'11111222,11111222,11144222' 
LUMCON,ioos:station:LUMCON:103:1,2004-04-07T18:00:00Z,30.1889,-90.1683,1.0,3.6,150.0,99.0,'11111222,11111222,11144222' 
LUMCON,ioos:station:LUMCON:103:1,2004-04-07T19:00:00Z,30.1889,-90.1683,1.0,4.1,130.0,99.0,'11111222,11111222,11144222' 
LUMCON,ioos:station:LUMCON:103:1,2004-04-07T20:00:00Z,30.1889,-90.1683,1.0,3.1,130.0,99.0,'11111222,11111222,11144222' 
LUMCON,ioos:station:LUMCON:103:1,2004-04-07T21:00:00Z,30.1889,-90.1683,1.0,2.6,120.0,99.0,'11111222,11111222,11144222' 
LUMCON,ioos:station:LUMCON:103:1,2004-04-07T22:00:00Z,30.1889,-90.1683,1.0,4.6,160.0,99.0,'11111222,11111222,11144222' 
LUMCON,ioos:station:LUMCON:103:1,2004-04-07T23:00:00Z,30.1889,-90.1683,1.0,5.1,150.0,99.0,'11111222,11111222,11144222' 
LUMCON,ioos:station:LUMCON:103:1,2004-04-08T00:00:00Z,30.1889,-90.1683,1.0,3.1,140.0,99.0,'11111222,11111222,11144222' 
LUMCON,ioos:station:LUMCON:103:1,2004-04-08T01:00:00Z,30.1889,-90.1683,1.0,3.6,150.0,99.0,'11111222,11111222,11144222' 
LUMCON,ioos:station:LUMCON:103:1,2004-04-08T02:00:00Z,30.1889,-90.1683,1.0,4.1,160.0,99.0,'11111222,11111222,11144222' 
LUMCON,ioos:station:LUMCON:103:1,2004-04-08T03:00:00Z,30.1889,-90.1683,1.0,3.6,210.0,99.0,'11111222,11111222,11144222' 
LUMCON,ioos:station:LUMCON:103:1,2004-04-08T04:00:00Z,30.1889,-90.1683,1.0,5.7,220.0,99.0,'11111222,11111222,11144222' 
LUMCON,ioos:station:LUMCON:103:1,2004-04-08T05:00:00Z,30.1889,-90.1683,1.0,5.1,240.0,99.0,'11111222,11111222,11144222' 
LUMCON,ioos:station:LUMCON:103:1,2004-04-08T06:00:00Z,30.1889,-90.1683,1.0,4.1,250.0,99.0,'11111222,11111222,11144222' 
LUMCON,ioos:station:LUMCON:103:1,2004-04-08T07:00:00Z,30.1889,-90.1683,1.0,5.7,240.0,99.0,'11111222,11111222,11144222' 
LUMCON,ioos:station:LUMCON:103:1,2004-04-08T08:00:00Z,30.1889,-90.1683,1.0,6.2,230.0,99.0,'11111222,11111222,11144222' 
LUMCON,ioos:station:LUMCON:103:1,2004-04-08T09:00:00Z,30.1889,-90.1683,1.0,7.2,260.0,99.0,'11111222,11111222,11144222' 
LUMCON,ioos:station:LUMCON:103:1,2004-04-08T10:00:00Z,30.1889,-90.1683,1.0,3.6,250.0,99.0,'11111222,11111222,11144222' 
LUMCON,ioos:station:LUMCON:103:1,2004-04-08T11:00:00Z,30.1889,-90.1683,1.0,4.1,230.0,99.0,'11111222,11111222,11144222' 
LUMCON,ioos:station:LUMCON:103:1,2004-04-08T12:00:00Z,30.1889,-90.1683,1.0,4.6,230.0,99.0,'11111222,11111222,11144222' 
LUMCON,ioos:station:LUMCON:103:1,2004-04-08T13:00:00Z,30.1889,-90.1683,1.0,6.2,250.0,99.0,'11111222,11111222,11144222' 
LUMCON,ioos:station:LUMCON:103:1,2004-04-08T14:00:00Z,30.1889,-90.1683,1.0,6.7,270.0,99.0,'11111222,11111222,11144222' 
LUMCON,ioos:station:LUMCON:103:1,2004-04-08T15:00:00Z,30.1889,-90.1683,1.0,7.2,290.0,99.0,'11111222,11111222,11144222' 
LUMCON,ioos:station:LUMCON:103:1,2004-04-08T16:00:00Z,30.1889,-90.1683,1.0,4.6,320.0,99.0,'11111222,11111222,11144222' 
LUMCON,ioos:station:LUMCON:103:1,2004-04-08T17:00:00Z,30.1889,-90.1683,1.0,5.1,310.0,99.0,'11111222,11111222,11144222' 
LUMCON,ioos:station:LUMCON:103:1,2004-04-08T18:00:00Z,30.1889,-90.1683,1.0,4.6,300.0,99.0,'11111222,11111222,11144222' 
LUMCON,ioos:station:LUMCON:103:1,2004-04-08T19:00:00Z,30.1889,-90.1683,1.0,4.6,320.0,99.0,'11111222,11111222,11144222' 
LUMCON,ioos:station:LUMCON:103:1,2004-04-08T20:00:00Z,30.1889,-90.1683,1.0,4.1,280.0,99.0,'11111222,11111222,11144222' 
LUMCON,ioos:station:LUMCON:103:1,2004-04-08T21:00:00Z,30.1889,-90.1683,1.0,5.7,320.0,99.0,'11111222,11111222,11144222' 
LUMCON,ioos:station:LUMCON:103:1,2004-04-08T22:00:00Z,30.1889,-90.1683,1.0,6.2,330.0,99.0,'11111222,11111222,11144222' 
LUMCON,ioos:station:LUMCON:103:1,2004-04-08T23:00:00Z,30.1889,-90.1683,1.0,5.7,330.0,99.0,'11111222,11111222,11144222' 
LUMCON,ioos:station:LUMCON:103:1,2004-04-09T00:00:00Z,30.1889,-90.1683,1.0,3.6,330.0,99.0,'11111222,11111222,11144222' 
LUMCON,ioos:station:LUMCON:103:1,2004-04-09T01:00:00Z,30.1889,-90.1683,1.0,2.6,320.0,99.0,'11111222,11111222,11144222' 
LUMCON,ioos:station:LUMCON:103:1,2004-04-09T02:00:00Z,30.1889,-90.1683,1.0,2.1,310.0,99.0,'11111222,11111222,11144222' 
LUMCON,ioos:station:LUMCON:103:1,2004-04-09T03:00:00Z,30.1889,-90.1683,1.0,2.1,310.0,99.0,'11111222,11111222,11144222' 
LUMCON,ioos:station:LUMCON:103:1,2004-04-09T04:00:00Z,30.1889,-90.1683,1.0,2.6,310.0,99.0,'11111222,11111222,11144222' 
LUMCON,ioos:station:LUMCON:103:1,2004-04-09T05:00:00Z,30.1889,-90.1683,1.0,3.6,330.0,99.0,'11111222,11111222,11144222' 
LUMCON,ioos:station:LUMCON:103:1,2004-04-09T06:00:00Z,30.1889,-90.1683,1.0,2.6,320.0,99.0,'11111222,11111222,11144222' 
LUMCON,ioos:station:LUMCON:103:1,2004-04-09T07:00:00Z,30.1889,-90.1683,1.0,2.1,330.0,99.0,'11111222,11111222,11144222' 
LUMCON,ioos:station:LUMCON:103:1,2004-04-09T08:00:00Z,30.1889,-90.1683,1.0,2.6,340.0,99.0,'11111222,11111222,11144222' 
LUMCON,ioos:station:LUMCON:103:1,2004-04-09T09:00:00Z,30.1889,-90.1683,1.0,4.1,10.0,99.0,'11111222,11111222,11144222' 
LUMCON,ioos:station:LUMCON:103:1,2004-04-09T10:00:00Z,30.1889,-90.1683,1.0,2.6,350.0,99.0,'11111222,11111222,11144222' 
LUMCON,ioos:station:LUMCON:103:1,2004-04-09T11:00:00Z,30.1889,-90.1683,1.0,1.5,340.0,99.0,'11111222,11111222,11144222' 
LUMCON,ioos:station:LUMCON:103:1,2004-04-09T13:00:00Z,30.1889,-90.1683,1.0,2.1,30.0,99.0,'11111222,11111222,11144222' 
LUMCON,ioos:station:LUMCON:103:1,2004-04-09T14:00:00Z,30.1889,-90.1683,1.0,2.1,30.0,99.0,'11111222,11111222,11144222' 
LUMCON,ioos:station:LUMCON:103:1,2004-04-09T15:00:00Z,30.1889,-90.1683,1.0,2.6,50.0,99.0,'11111222,11111222,11144222' 
LUMCON,ioos:station:LUMCON:103:1,2004-04-09T16:00:00Z,30.1889,-90.1683,1.0,2.1,90.0,99.0,'11111222,11111222,11144222' 
LUMCON,ioos:station:LUMCON:103:1,2004-04-09T17:00:00Z,30.1889,-90.1683,1.0,2.1,140.0,99.0,'11111222,11111222,11144222' 
LUMCON,ioos:station:LUMCON:103:1,2004-04-09T18:00:00Z,30.1889,-90.1683,1.0,2.6,150.0,99.0,'11111222,11111222,11144222' 
LUMCON,ioos:station:LUMCON:103:1,2004-04-09T19:00:00Z,30.1889,-90.1683,1.0,2.6,140.0,99.0,'11111222,11111222,11144222' 
LUMCON,ioos:station:LUMCON:103:1,2004-04-09T20:00:00Z,30.1889,-90.1683,1.0,3.1,130.0,99.0,'11111222,11111222,11144222' 